Location: Boullarre
(49.1305°N, 3.0047°E)
Time: 23:19:37
(UTC+00:00)

Meteor 1-11 - Pass Details

Date: 03 February 2023
Orbit: 839 x 888 km, 81.2° (Epoch: 21 March)

Event Time Altitude Azimuth Distance (km) Brightness Sun altitude
Rises 17:46:17 0° 175° (S) 3,482 7.5 -9.9°
Reaches altitude 10° 17:48:46 10° 171° (S) 2,546 6.8 -10.3°
Maximum altitude 17:54:24 55° 95° (E) 1,062 4.4 -11.2°
Drops below altitude 10° 18:00:03 10° 20° (NNE) 2,547 6.4 -12.1°
Sets 18:02:32 0° 16° (NNE) 3,484 7.1 -12.5°
